CST,Max TemperatureF,Mean TemperatureF,Min TemperatureF,Max Dew PointF,MeanDew PointF,Min DewpointF,Max Humidity, Mean Humidity, Min Humidity, Max Sea Level PressureIn, Mean Sea Level PressureIn, Min Sea Level PressureIn, Max VisibilityMiles, Mean VisibilityMiles, Min VisibilityMiles, Max Wind SpeedMPH, Mean Wind SpeedMPH, Max Gust SpeedMPH,PrecipitationIn, CloudCover, Events, WindDirDegrees
2014-2-1,15,8,1,10,5,-5,83,77,70,30.09,30.00,29.92,10,8,1,10,3,,0.01,6,Snow,351
2014-2-2,11,4,-4,4,-2,-9,79,68,50,30.29,30.22,30.09,10,10,10,8,5,,0.00,1,,277
2014-2-3,15,2,-11,0,-7,-18,78,63,47,30.34,30.30,30.28,10,10,10,13,4,,0.00,0,,185
2014-2-4,17,8,0,8,1,-6,77,68,61,30.41,30.32,30.20,10,10,10,12,4,16,0.00,4,,343
2014-2-5,16,10,3,10,4,-4,82,68,58,30.40,30.29,30.16,10,9,1,21,12,29,0.00,6,Snow,335
2014-2-6,5,0,-5,-5,-10,-14,76,63,49,30.38,30.32,30.25,10,10,10,16,8,18,0.00,0,,246
2014-2-7,11,1,-9,-6,-10,-16,75,62,42,30.27,30.24,30.21,10,10,7,20,11,24,0.00,0,,213
2014-2-8,13,4,-6,7,0,-12,84,76,67,30.25,30.17,30.10,10,7,1,9,5,,0.00,5,Snow,169
2014-2-9,17,8,0,6,0,-12,86,67,50,30.27,30.14,30.09,10,9,2,10,4,17,0.00,3,Snow,279
2014-2-10,7,0,-7,-10,-13,-16,66,56,43,30.43,30.36,30.27,10,10,10,10,5,,0.00,0,,277
2014-2-11,11,1,-9,-8,-12,-17,71,59,42,30.47,30.40,30.30,10,10,10,13,3,,0.00,0,,195
2014-2-12,16,8,0,10,2,-10,87,73,61,30.29,30.13,29.97,10,6,0,13,9,,0.00,6,Fog-Snow,177
2014-2-13,27,19,11,22,14,6,89,73,53,29.96,29.66,29.47,10,8,0,18,10,25,0.00,8,Snow,183
2014-2-14,22,16,9,11,4,-2,78,64,51,29.94,29.75,29.57,10,10,10,13,8,20,0.00,1,,299
2014-2-15,18,8,-3,13,1,-9,88,68,51,30.05,29.98,29.92,10,9,2,10,5,,0.00,2,Snow,178
2014-2-16,19,14,9,13,7,2,89,74,54,30.26,30.14,29.93,10,9,3,13,7,,0.00,4,Snow,345
2014-2-17,23,18,12,21,17,6,92,85,74,30.23,29.90,29.69,10,5,0,24,9,37,0.04,7,Snow,131
2014-2-18,41,29,17,27,22,14,92,75,50,29.87,29.71,29.57,10,8,2,22,8,28,0.00,2,,194
2014-2-19,41,34,28,27,22,18,81,63,40,29.92,29.82,29.64,10,10,10,13,7,,0.00,1,Rain,231
2014-2-20,39,34,30,39,31,22,99,87,63,29.88,29.44,29.08,10,8,1,32,14,44,0.20,8,Rain-Thunderstorm,124
2014-2-21,34,26,17,29,14,8,82,67,53,29.72,29.45,29.11,10,10,10,36,27,46,0.02,5,Snow,230
2014-2-22,26,20,12,10,7,2,68,59,46,30.04,29.89,29.72,10,10,10,20,15,25,0.00,0,,236
2014-2-23,23,14,6,4,1,-2,68,56,40,30.16,30.11,30.05,10,10,10,20,10,23,0.00,0,,254
2014-2-24,20,13,6,2,0,-3,71,57,42,30.22,30.18,30.15,10,10,10,17,9,25,0.00,1,,268
2014-2-25,13,7,0,0,-6,-11,76,54,36,30.21,30.16,30.09,10,10,4,16,8,23,0.00,1,Snow,276
2014-2-26,12,4,-5,7,-9,-15,81,56,40,30.19,29.91,29.57,10,9,0,30,12,39,0.00,2,Snow,239
2014-2-27,8,2,-6,2,-18,-25,76,43,25,30.16,30.01,29.62,10,9,1,20,12,28,0.00,1,Snow,295
2014-2-28,20,6,-8,15,-4,-19,87,57,42,30.16,30.05,29.94,10,9,1,18,7,24,0.00,4,Snow,145